Weather in Gjirokastër

Albania     40˚04′48″N   20˚08′20″E
temp.,
°C
wind,
m/s
gust,
m/s
humid.,
%
clouds,
%
prec.,
mm/h
press.,
hPa
HPBL,
m
17 january, sun
sun1701:00−5˚ne22790 0.0 101670
04:00−3˚nne22610 0.0 1016255
07:00−3˚n23610 0.0 1017289
10:00−1˚n23370 0.0 1018674
13:00+1˚nw233533 0.0 10161020
16:00+1˚nw1141100 0.0 1016194
19:00ne1144100 0.0 101627
22:00−1˚nw1147100 0.0 101740
18 january, mon
mon1801:00−2˚ne2251100 0.0 101733
04:00−2˚ne22552 0.0 101837
07:00−3˚ene22541 0.0 1019101
10:00ene33400 0.0 1020591
13:00+2˚ne22350 0.0 10201016
16:00+1˚n12470 0.0 102130
19:00−2˚ne22580 0.0 102324
22:00−3˚ne226134 0.0 102428
19 january, tue
tue1901:00−3˚nne125656 0.0 102530
04:00−3˚nne224621 0.0 102539
07:00−3˚nne224111 0.0 102638
10:00+2˚n23250 0.0 1026402
13:00+4˚nnw46350 0.0 1025780
16:00+2˚n23530 0.0 102662
19:00−1˚n22520 0.0 102822
22:00−1˚nne12500 0.0 102821
20 january, wed
wed2001:00−1˚nne11500 0.0 102821
04:00−1˚ne115067 0.0 102821
07:00−1˚e125060 0.0 102822
10:00+4˚ese22522 0.0 1028168
13:00+6˚sse226543 0.0 1026290
16:00+3˚ese2281100 0.0 102527
19:00+2˚se239495 0.3 102646
22:00+1˚e229352 0.1 102623
21 january, thu
thu2101:00+3˚ese239355 0.1 102550
04:00+3˚ese229295 0.0 102330
07:00+4˚ese339597 0.5 102479
10:00+5˚se239698 0.3 102355
13:00+7˚sse239699 0.9 102397
16:00+6˚s2299100 1.2 102255
19:00+6˚s2399100 3.1 102369
22:00+6˚se2398100 2.1 102369